Retour au catalogue

ARGOS

ActifScienceSSO
NORAD 25634·PAYLOAD·🇺🇸 United States

Lancé Feb 23, 1999 depuis Vandenberg Space Force Base

Loading…

Prochains Passages (prochaines 24 heures)

TLE

FraisSource: Space-Track

Époque: Sep 14, 2026, 14:46 UTC

1 25634U 99008A   26257.61542273  .00000017  00000-0  27923-4 0  9993
2 25634  98.5241 220.3681 0010856 136.4874 223.7161 14.20001435426998

Suivez ARGOS en temps réel avec AllMySat

Download on the App Store